Year,Month,Day,Hour,Minute,Value (Times are PST for temperature in C)
2009,08,19,15,40,32.30
2009,08,19,15,41,32.40
2009,08,19,15,42,32.40
2009,08,19,15,43,32.40
2009,08,19,15,44,32.50
2009,08,19,15,45,32.50
2009,08,19,15,46,32.60
2009,08,19,15,47,32.60
2009,08,19,15,48,32.60
2009,08,19,15,49,32.60
2009,08,19,15,50,32.60
2009,08,19,15,51,32.60
2009,08,19,15,52,32.60
2009,08,19,15,53,32.50
2009,08,19,15,54,32.60
2009,08,19,15,55,32.60
2009,08,19,15,56,32.70
2009,08,19,15,57,32.70
2009,08,19,15,58,32.70
2009,08,19,15,59,32.70
2009,08,19,16,00,32.70
2009,08,19,16,01,32.70
2009,08,19,16,02,32.70
2009,08,19,16,03,32.70
2009,08,19,16,04,32.70
2009,08,19,16,05,32.80
2009,08,19,16,06,32.80
2009,08,19,16,07,32.70
2009,08,19,16,08,32.70
2009,08,19,16,09,32.70
2009,08,19,16,10,32.70
2009,08,19,16,11,32.70
2009,08,19,16,12,32.60
2009,08,19,16,13,32.60
2009,08,19,16,14,32.60
2009,08,19,16,15,32.60
2009,08,19,16,16,32.60
2009,08,19,16,17,32.60
2009,08,19,16,18,32.70
2009,08,19,16,19,32.70
2009,08,19,16,20,32.80
2009,08,19,16,21,32.80
2009,08,19,16,22,32.80
2009,08,19,16,23,32.90
2009,08,19,16,24,32.90
2009,08,19,16,25,32.90
2009,08,19,16,26,32.90
2009,08,19,16,27,32.90
2009,08,19,16,28,32.90
2009,08,19,16,29,32.90
2009,08,19,16,30,32.90
2009,08,19,16,31,32.90
2009,08,19,16,32,32.90
2009,08,19,16,33,32.90
2009,08,19,16,34,32.80
2009,08,19,16,35,32.90
2009,08,19,16,36,32.90
2009,08,19,16,37,32.90
2009,08,19,16,38,32.90
2009,08,19,16,39,32.90
2009,08,19,16,40,33.00
2009,08,19,16,41,33.10
2009,08,19,16,42,33.10
2009,08,19,16,43,33.10
2009,08,19,16,44,33.10
2009,08,19,16,45,32.90
2009,08,19,16,46,32.90
2009,08,19,16,47,32.70
2009,08,19,16,48,32.60
2009,08,19,16,49,32.40
2009,08,19,16,50,32.10
2009,08,19,16,51,31.80
2009,08,19,16,52,31.40
2009,08,19,16,53,31.20
2009,08,19,16,54,31.00
2009,08,19,16,55,30.80
2009,08,19,16,56,30.70
2009,08,19,16,57,30.60
2009,08,19,16,58,30.60
2009,08,19,16,59,30.40
2009,08,19,17,00,30.40
2009,08,19,17,01,30.30
2009,08,19,17,02,30.20
2009,08,19,17,03,30.20
2009,08,19,17,04,30.20
2009,08,19,17,05,30.20
2009,08,19,17,06,30.10
2009,08,19,17,07,30.00
2009,08,19,17,08,29.90
2009,08,19,17,09,29.90
2009,08,19,17,10,29.90
2009,08,19,17,11,29.90
2009,08,19,17,12,29.90
2009,08,19,17,13,29.90
2009,08,19,17,14,30.00
2009,08,19,17,15,30.00
2009,08,19,17,16,30.00
2009,08,19,17,17,30.10
2009,08,19,17,18,30.10
2009,08,19,17,19,30.10
2009,08,19,17,20,30.10
2009,08,19,17,21,30.10
2009,08,19,17,22,30.10
2009,08,19,17,23,30.10
2009,08,19,17,24,30.00
2009,08,19,17,25,29.90
2009,08,19,17,26,29.90
2009,08,19,17,27,29.80
2009,08,19,17,28,29.80
2009,08,19,17,29,29.70
2009,08,19,17,30,29.60
2009,08,19,17,31,29.60
2009,08,19,17,32,29.50
2009,08,19,17,33,29.40
2009,08,19,17,34,29.40
2009,08,19,17,35,29.40
2009,08,19,17,36,29.40
2009,08,19,17,37,29.40
2009,08,19,17,38,29.50
2009,08,19,17,39,29.50
2009,08,19,17,40,29.40
2009,08,19,17,41,29.40
2009,08,19,17,42,29.30
2009,08,19,17,43,29.30
2009,08,19,17,44,29.20
2009,08,19,17,45,29.20
2009,08,19,17,46,29.20
2009,08,19,17,47,29.10
2009,08,19,17,48,29.10
2009,08,19,17,49,29.10
2009,08,19,17,50,29.10
2009,08,19,17,51,29.00
2009,08,19,17,52,29.00
2009,08,19,17,53,29.00
2009,08,19,17,54,29.00
2009,08,19,17,55,29.00
2009,08,19,17,56,29.00
2009,08,19,17,57,29.10
2009,08,19,17,58,29.10
2009,08,19,17,59,29.10
2009,08,19,18,00,29.10
2009,08,19,18,01,29.10
2009,08,19,18,02,29.10
2009,08,19,18,03,29.10
2009,08,19,18,04,29.10
2009,08,19,18,05,29.20
2009,08,19,18,06,29.20
2009,08,19,18,07,29.20
2009,08,19,18,08,29.30
2009,08,19,18,09,29.20
2009,08,19,18,10,29.20
2009,08,19,18,11,29.10
2009,08,19,18,12,29.00
2009,08,19,18,13,28.90
2009,08,19,18,14,28.90
2009,08,19,18,15,28.80
2009,08,19,18,16,28.80
2009,08,19,18,17,28.70
2009,08,19,18,18,28.70
2009,08,19,18,19,28.70
2009,08,19,18,20,28.70
2009,08,19,18,21,28.60
2009,08,19,18,22,28.70
2009,08,19,18,23,28.70
2009,08,19,18,24,28.70
2009,08,19,18,25,28.70
2009,08,19,18,26,28.70
2009,08,19,18,27,28.80
2009,08,19,18,28,28.80
2009,08,19,18,29,28.80
2009,08,19,18,30,28.80
2009,08,19,18,31,28.80
2009,08,19,18,32,28.70
2009,08,19,18,33,28.60
2009,08,19,18,34,28.50
2009,08,19,18,35,28.40
2009,08,19,18,36,28.30
2009,08,19,18,37,28.20
2009,08,19,18,38,28.10
2009,08,19,18,39,28.10
2009,08,19,18,40,28.00
2009,08,19,18,41,27.90
2009,08,19,18,42,27.90
2009,08,19,18,43,27.90
2009,08,19,18,44,27.80
2009,08,19,18,45,27.80
2009,08,19,18,46,27.80
2009,08,19,18,47,27.80
2009,08,19,18,48,27.80
2009,08,19,18,49,27.80
2009,08,19,18,50,27.80
2009,08,19,18,51,27.80
2009,08,19,18,52,27.70
2009,08,19,18,53,27.70
2009,08,19,18,54,27.70
2009,08,19,18,55,27.70
2009,08,19,18,56,27.70
2009,08,19,18,57,27.70
2009,08,19,18,58,27.70
2009,08,19,18,59,27.70
2009,08,19,19,00,27.70
2009,08,19,19,01,27.70
2009,08,19,19,02,27.70
2009,08,19,19,03,27.70
2009,08,19,19,04,27.60
2009,08,19,19,05,27.60
2009,08,19,19,06,27.60
2009,08,19,19,07,27.60
2009,08,19,19,08,27.60
2009,08,19,19,09,27.50
2009,08,19,19,10,27.50
2009,08,19,19,11,27.40
2009,08,19,19,12,27.40
2009,08,19,19,13,27.40
2009,08,19,19,14,27.40
2009,08,19,19,15,27.40
2009,08,19,19,16,27.40
2009,08,19,19,17,27.40
2009,08,19,19,18,27.30
2009,08,19,19,19,27.30
2009,08,19,19,20,27.30
2009,08,19,19,21,27.30
2009,08,19,19,22,27.30
2009,08,19,19,23,27.30
2009,08,19,19,24,27.30
2009,08,19,19,25,27.30
2009,08,19,19,26,27.30
2009,08,19,19,27,27.30
2009,08,19,19,28,27.30
2009,08,19,19,29,27.30
2009,08,19,19,30,27.30
2009,08,19,19,31,27.30
2009,08,19,19,32,27.30
2009,08,19,19,33,27.30
2009,08,19,19,38,27.40
2009,08,19,19,39,27.40
2009,08,19,19,40,27.40
2009,08,19,19,41,27.40
2009,08,19,19,42,27.40
2009,08,19,19,43,27.40
2009,08,19,19,44,27.40
2009,08,19,19,45,27.40
2009,08,19,19,46,27.40
2009,08,19,19,47,27.40
2009,08,19,19,48,27.40
2009,08,19,19,49,27.40
2009,08,19,19,50,27.40
2009,08,19,19,51,27.30
2009,08,19,19,52,27.30
2009,08,19,19,53,27.30
2009,08,19,19,54,27.30
2009,08,19,19,55,27.30
2009,08,19,19,56,27.30
2009,08,19,19,57,27.30
2009,08,19,19,58,27.20
2009,08,19,19,59,27.20
2009,08,19,20,00,27.20
2009,08,19,20,01,27.20
2009,08,19,20,02,27.20
2009,08,19,20,03,27.20
2009,08,19,20,04,27.10
2009,08,19,20,05,27.10
2009,08,19,20,06,27.10
2009,08,19,20,07,27.10
2009,08,19,20,08,27.10
2009,08,19,20,09,27.00
2009,08,19,20,10,27.00
2009,08,19,20,11,26.90
2009,08,19,20,12,26.90
2009,08,19,20,13,26.90
2009,08,19,20,14,26.90
2009,08,19,20,15,26.80
2009,08,19,20,16,26.80
2009,08,19,20,17,26.70
2009,08,19,20,18,26.60
2009,08,19,20,19,26.60
2009,08,19,20,20,26.50
2009,08,19,20,21,26.40
2009,08,19,20,22,26.40
2009,08,19,20,23,26.40
2009,08,19,20,24,26.30
2009,08,19,20,25,26.30
2009,08,19,20,26,26.30
2009,08,19,20,27,26.30
2009,08,19,20,28,26.30
2009,08,19,20,29,26.30
2009,08,19,20,30,26.20
2009,08,19,20,31,26.20
2009,08,19,20,32,26.20
2009,08,19,20,33,26.20
2009,08,19,20,34,26.20
2009,08,19,20,35,26.10
2009,08,19,20,36,26.10
2009,08,19,20,37,26.10
2009,08,19,20,38,26.10
2009,08,19,20,39,26.00
2009,08,19,20,40,26.00
2009,08,19,20,41,26.00
2009,08,19,20,42,26.00
2009,08,19,20,43,25.90
2009,08,19,20,44,25.90
2009,08,19,20,45,25.90
2009,08,19,20,46,25.90
2009,08,19,20,47,25.90
2009,08,19,20,48,25.90
2009,08,19,20,49,25.90
2009,08,19,20,50,25.90
2009,08,19,20,51,25.90
2009,08,19,20,52,25.90
2009,08,19,20,53,25.90
2009,08,19,20,54,25.80
2009,08,19,20,55,25.80
2009,08,19,20,56,25.80
2009,08,19,20,57,25.80
2009,08,19,20,58,25.80
2009,08,19,20,59,25.80
2009,08,19,21,00,25.70
2009,08,19,21,01,25.70
2009,08,19,21,02,25.70
2009,08,19,21,03,25.70
2009,08,19,21,04,25.70
2009,08,19,21,05,25.70
2009,08,19,21,06,25.60
2009,08,19,21,07,25.60
2009,08,19,21,08,25.60
2009,08,19,21,09,25.60
2009,08,19,21,10,25.60
2009,08,19,21,11,25.60
2009,08,19,21,12,25.60
2009,08,19,21,13,25.50
2009,08,19,21,14,25.50
2009,08,19,21,15,25.50
2009,08,19,21,16,25.40
2009,08,19,21,17,25.40
2009,08,19,21,18,25.40
2009,08,19,21,19,25.40
2009,08,19,21,20,25.30
2009,08,19,21,21,25.30
2009,08,19,21,22,25.30
2009,08,19,21,23,25.30
2009,08,19,21,24,25.20
2009,08,19,21,25,25.20
2009,08,19,21,26,25.20
2009,08,19,21,27,25.20
2009,08,19,21,28,25.20
2009,08,19,21,29,25.20
2009,08,19,21,30,25.10
2009,08,19,21,31,25.10
2009,08,19,21,32,25.10
2009,08,19,21,33,25.10
2009,08,19,21,34,25.10
2009,08,19,21,35,25.10
2009,08,19,21,36,25.10
2009,08,19,21,37,25.00
2009,08,19,21,38,25.00
2009,08,19,21,39,25.00
2009,08,19,21,40,25.00
2009,08,19,21,41,24.90
2009,08,19,21,42,24.90
2009,08,19,21,43,24.80
2009,08,19,21,44,24.80
2009,08,19,21,45,24.70
2009,08,19,21,46,24.60
2009,08,19,21,47,24.40
2009,08,19,21,48,24.30
2009,08,19,21,49,24.30
2009,08,19,21,50,24.20
2009,08,19,21,51,24.10
2009,08,19,21,52,24.10
2009,08,19,21,53,24.00
2009,08,19,21,54,24.00
2009,08,19,21,55,23.90
2009,08,19,21,56,23.90
2009,08,19,21,57,23.90
2009,08,19,21,58,23.80
2009,08,19,21,59,23.80
2009,08,19,22,00,23.80
2009,08,19,22,01,23.80
2009,08,19,22,02,23.80
2009,08,19,22,03,23.80
2009,08,19,22,04,23.80
2009,08,19,22,05,23.80
2009,08,19,22,06,23.80
2009,08,19,22,07,23.80
2009,08,19,22,08,23.80
2009,08,19,22,09,23.70
2009,08,19,22,10,23.70
2009,08,19,22,11,23.70
2009,08,19,22,12,23.60
2009,08,19,22,13,23.60
2009,08,19,22,14,23.60
2009,08,19,22,15,23.50
2009,08,19,22,16,23.40
2009,08,19,22,17,23.40
2009,08,19,22,18,23.40
2009,08,19,22,19,23.30
2009,08,19,22,20,23.30
2009,08,19,22,21,23.30
2009,08,19,22,22,23.30
2009,08,19,22,23,23.20
2009,08,19,22,24,23.20
2009,08,19,22,25,23.20
2009,08,19,22,26,23.20
2009,08,19,22,27,23.20
2009,08,19,22,28,23.10
2009,08,19,22,29,23.10
2009,08,19,22,30,23.10
2009,08,19,22,31,23.10
2009,08,19,22,32,23.10
2009,08,19,22,33,23.10
2009,08,19,22,34,23.00
2009,08,19,22,35,23.00
2009,08,19,22,36,22.90
2009,08,19,22,37,22.90
2009,08,19,22,38,22.90
2009,08,19,22,39,22.90
2009,08,19,22,40,22.90
2009,08,19,22,41,22.90
2009,08,19,22,42,22.90
2009,08,19,22,43,22.80
2009,08,19,22,44,22.80
2009,08,19,22,45,22.80
2009,08,19,22,46,22.80
2009,08,19,22,47,22.80
2009,08,19,22,48,22.70
2009,08,19,22,49,22.70
2009,08,19,22,50,22.70
2009,08,19,22,51,22.70
2009,08,19,22,52,22.70
2009,08,19,22,53,22.70
2009,08,19,22,54,22.60
2009,08,19,22,55,22.60
2009,08,19,22,56,22.60
2009,08,19,22,57,22.60
2009,08,19,22,58,22.60
2009,08,19,22,59,22.50
2009,08,19,23,00,22.50
2009,08,19,23,01,22.50
2009,08,19,23,02,22.40
2009,08,19,23,03,22.40
2009,08,19,23,04,22.40
2009,08,19,23,05,22.40
2009,08,19,23,06,22.40
2009,08,19,23,07,22.40
2009,08,19,23,08,22.30
2009,08,19,23,09,22.30
2009,08,19,23,10,22.30
2009,08,19,23,11,22.30
2009,08,19,23,12,22.30
2009,08,19,23,13,22.30
2009,08,19,23,14,22.30
2009,08,19,23,15,22.30
2009,08,19,23,16,22.30
2009,08,19,23,17,22.30
2009,08,19,23,18,22.30
2009,08,19,23,19,22.20
2009,08,19,23,20,22.20
2009,08,19,23,21,22.20
2009,08,19,23,22,22.20
2009,08,19,23,23,22.20
2009,08,19,23,24,22.20
2009,08,19,23,25,22.20
2009,08,19,23,26,22.20
2009,08,19,23,27,22.10
2009,08,19,23,28,22.10
2009,08,19,23,29,22.10
2009,08,19,23,30,22.10
2009,08,19,23,31,22.00
2009,08,19,23,32,22.00
2009,08,19,23,33,22.00
2009,08,19,23,34,21.90
2009,08,19,23,35,21.90
2009,08,19,23,36,21.80
2009,08,19,23,37,21.80
2009,08,19,23,38,21.80
2009,08,19,23,39,21.80
2009,08,19,23,40,21.70
2009,08,19,23,41,21.70
2009,08,19,23,42,21.70
2009,08,19,23,43,21.60
2009,08,19,23,44,21.60
2009,08,19,23,45,21.60
2009,08,19,23,46,21.60
2009,08,19,23,47,21.60
2009,08,19,23,48,21.50
2009,08,19,23,49,21.50
2009,08,19,23,50,21.50
2009,08,19,23,51,21.50
2009,08,19,23,52,21.40
2009,08,19,23,53,21.40
2009,08,19,23,54,21.40
2009,08,19,23,55,21.40
2009,08,19,23,56,21.40
2009,08,19,23,57,21.40
2009,08,19,23,58,21.40
